Regional Weather Roundup
Issued by NWS

Home | Current Version | Previous Version | Text Only | Print | Product List | Glossary On
Versions: 1 2 3 4 5 6 7 8 9 10 11 12 13 14 15 16 17 18 19 20 21 22 23 24 25 26 27 28 29 30 31 32 33 34 35 36 37 38 39 40 41 42 43 44 45 46 47 48 49 50
000
ASUS43 KMPX 250010
RWRMN
WEATHER ROUNDUP FOR MINNESOTA
NATIONAL WEATHER SERVICE TWIN CITIES/CHANHASSEN MN
700 PM CDT FRI APR 24 2015


NOTE: "FAIR" INDICATES FEW OR NO CLOUDS BELOW 12,000 FEET WITH NO
SIGNIFICANT WEATHER AND/OR OBSTRUCTIONS TO VISIBILITY. N/A MEANS
CURRENT SKY AND/OR WEATHER CONDITIONS ARE NOT AVAILABLE.

MNZ060>063-068>070-250100-
   Twin Cities Metro

CITY           SKY/WX    TMP DP  RH WIND       PRES   REMARKS
TWIN CITIES    LGT RAIN  44  41  89 E17G24    29.81R FOG
6HR MIN TEMP:  44; 6HR MAX TEMP:  49; 6HR PCP:  0.21;

ST PAUL        RAIN      45  41  86 SE8       29.83R FOG
CRYSTAL        CLOUDY    46  41  82 E8        29.80R
BLAINE         CLOUDY    48  39  71 SE18      29.81R
LAKEVILLE      RAIN      43  39  87 SE13      29.79S
EDEN PRAIRIE   LGT RAIN  44  40  85 E14       29.78S
6HR MIN TEMP:  44; 6HR MAX TEMP:  48; 6HR PCP:  0.20;

SOUTH ST PAUL  LGT RAIN  45  41  87 SE6       29.82R
LAKE ELMO      RAIN      46  37  71 SE10G16   29.83S
$$
MNZ001>005-007-008-013>017-022>024-027-028-250100-
   Northwest Minnesota

CITY           SKY/WX    TMP DP  RH WIND       PRES   REMARKS
BEMIDJI        CLOUDY    42  32  66 SE17      29.82R
HALLOCK        CLOUDY    48  34  57 SE9       29.80R
ROSEAU         CLOUDY    43  34  70 E10G20    29.85R
WARROAD        CLOUDY    39  34  81 NE8       29.87R
THIEF RVR FALL CLOUDY    46  32  57 E14       29.79R
CROOKSTON      CLOUDY    52  37  58 SE9       29.77R
FOSSTON        CLOUDY    45  34  65 SE10      29.79R
DETROIT LAKES  CLOUDY    45  37  76 SE15      29.77R
MOORHEAD       PTSUNNY   48  39  71 SE14G21   29.74R
PARK RAPIDS    CLOUDY    45  32  60 SE12      29.79S
MAHNOMEN       CLOUDY    46  35  66 SE16      29.76S
$$
MNZ006-009>011-018-025>026-250100-
   North Central Minnesota

CITY           SKY/WX    TMP DP  RH WIND       PRES   REMARKS
BAUDETTE       CLOUDY    41  31  67 SE14G23   29.87R
FLAG ISLAND    CLOUDY    39  30  70 SE6G17    29.88S
INTL FALLS     CLOUDY    41  22  46 E8        29.90S
6HR MIN TEMP:  39; 6HR MAX TEMP:  42; 6HR PCP: TRACE;

WASKISH        CLOUDY    43  32  65 E10       29.85S
BIG FORK       CLOUDY    43  28  56 SE9       29.88R
LONGVILLE      CLOUDY    43  32  65 E8        29.83S
GRAND RAPIDS   CLOUDY    41  28  60 SE8       29.87R
CRANE LAKE     CLOUDY    39  16  38 CALM      29.94S
ORR            CLOUDY    41  18  38 CALM      29.88S
COOK           CLOUDY    41  21  45 E3        29.91S
WALKER         CLOUDY    41  32  71 E7        29.83R
$$
MNZ012-019>021-037-250100-
   Northeast Minnesota

CITY           SKY/WX    TMP DP  RH WIND       PRES   REMARKS
DULUTH         CLOUDY    37  24  59 E13       29.90S
6HR MIN TEMP:  37; 6HR MAX TEMP:  40;

ELY            CLOUDY    39  14  35 E6        29.93F
HIBBING        CLOUDY    41  27  57 SE10      29.90R
EVELETH        CLOUDY    39  23  52 E5        29.92R
DULUTH HARBOR  CLOUDY    37  32  81 NE23G30   29.93S
TWO HARBORS    CLOUDY    39  25  56 E15       29.93R
SILVER BAY     CLOUDY    36  25  64 NE10      29.96R
GRAND MARAIS     N/A     35  29  78 NE10      30.01R WCI  27
G MARAIS ARPRT CLOUDY    36   7  30 E7        29.97S
$$
MNZ029>031-032-039>041-046>048-054>057-064-250100-
   West Central Minnesota

CITY           SKY/WX    TMP DP  RH WIND       PRES   REMARKS
FERGUS FALLS   CLOUDY    46  37  71 SE15G21   29.75S
WHEATON        LGT RAIN  46  43  87 E21       29.70S
MORRIS         CLOUDY    48  43  81 E18       29.70S
ALEXANDRIA     LGT RAIN  43  41  93 SE15      29.76R FOG
ELBOW LAKE     CLOUDY    45  42  88 E15       29.72S
WADENA         CLOUDY    43  36  75 E14       29.78R
GLENWOOD       CLOUDY    45  41  87 E15       29.75R
APPLETON       MOSUNNY   52  43  71 E20G26    29.68S
BENSON         CLOUDY    46  43  87 S13G20    29.72R
ORTONVILLE     MOSUNNY   52  43  71 E18G24    29.66S
MADISON        PTSUNNY   52  43  71 SE22      29.66S
WILLMAR        CLOUDY    46  43  87 SE17G24   29.74R
$$
MNZ033>034-036-042>043-049>051-058-059-250100-
   Central Minnesota

CITY           SKY/WX    TMP DP  RH WIND       PRES   REMARKS
ST CLOUD       CLOUDY    46  39  76 SE13      29.78S
6HR MIN TEMP:  40; 6HR MAX TEMP:  46; 6HR PCP:  0.16;

SAUK CENTRE    CLOUDY    44  40  88 E13G21    29.76R
PAYNESVILLE    CLOUDY    42  39  90 E14       29.76R
AITKIN         MIX PCPN  43  32  65 E8        29.83R
PINE RIVER     CLOUDY    43  34  70 E10       29.85S
BRAINERD       CLOUDY    43  33  68 E9        29.82R
STAPLES        CLOUDY    45  32  61 E8        29.79R
LONG PRAIRIE   CLOUDY    43  37  81 E8        29.77R
LITTLE FALLS   CLOUDY    45  36  70 E6        29.79R
LITCHFIELD     CLOUDY    46  45  93 SE15      29.76R
BUFFALO        CLOUDY    44  40  85 E15       29.79S
MAPLE LAKE     CLOUDY    46  42  86 E14       29.79S
$$
MNZ037-044-045-052-053-250100-
   East Central Minnesota

CITY           SKY/WX    TMP DP  RH WIND       PRES   REMARKS
PRINCETON      CLOUDY    48  39  71 E8        29.80S
MORA           CLOUDY    46  34  61 SE5       29.84R
CAMBRIDGE      CLOUDY    50  36  57 SE13G20   29.79S
RUSH CITY      CLOUDY    49  33  53 SE5       29.83S
MOOSE LAKE     CLOUDY    37  34  87 CALM      29.86R
HINCKLEY       CLOUDY    45  32  61 E10       29.84S
CLOQUET        CLOUDY    37  28  70 E12       29.88S
MCGREGOR       CLOUDY    37  32  81 E12       29.87R
$$
MNZ071>073-080-081-089-090-097-098-250100-
   Southwest Minnesota

CITY           SKY/WX    TMP DP  RH WIND       PRES   REMARKS
MONTEVIDEO     CLOUDY    48  45  87 S17       29.70F
GRANITE FALLS  CLOUDY    47  42  81 E17       29.71S
CANBY          PTSUNNY   51  43  75 SE18G25   29.66R
MARSHALL       CLOUDY    50  39  66 E17G25    29.65F
REDWOOD FALLS  CLOUDY    46  42  86 E13G21    29.71S
OLIVIA         CLOUDY    45  37  76 SE16G22   29.72R
PIPESTONE      MOSUNNY   55  46  71 E20G25    29.59S
WINDOM         CLOUDY    50  45  81 E15       29.68S
WORTHINGTON    CLOUDY    52  45  76 SE21G26   29.64R
JACKSON        CLOUDY    50  43  76 SE20G26   29.68S
TRACY          CLOUDY    52  46  79 SE20      29.66S
SLAYTON        CLOUDY    51  46  83 E17G26    29.64S
$$
MNZ065>067-074>077-082>085-091>093-250100-
   South Central Minnesota

CITY           SKY/WX    TMP DP  RH WIND       PRES   REMARKS
MANKATO        CLOUDY    45  37  76 SE17      29.75F
NEW ULM        CLOUDY    45  43  93 SE17      29.71F
ST JAMES       CLOUDY    48  43  81 E16       29.72F
FAIRMONT       CLOUDY    46  14  27 SE21      29.70S
GLENCOE        CLOUDY    46  43  90 E17       29.75S
FARIBAULT      DRIZZLE   43  41  93 E8        29.79S
OWATONNA       LGT RAIN  43  39  87 SE12      29.77F
WASECA         CLOUDY    43  39  87 SE16      29.77S
ALBERT LEA     CLOUDY    45  43  93 SE16      29.75F
$$
MNZ078>079-086>088-094>096-250100-
   Southeast Minnesota

CITY           SKY/WX    TMP DP  RH WIND       PRES   REMARKS
ROCHESTER      LGT RAIN  43  39  86 SE14      29.81F
6HR MIN TEMP:  42; 6HR MAX TEMP:  46; 6HR PCP:  0.19;

RED WING       RAIN      45  41  87 E9        29.83S
STANTON        RAIN      45  40  84 E9G16     29.79F
DODGE CENTER   LGT RAIN  43  41  93 SE20      29.76F
AUSTIN         DRIZZLE   43  39  87 SE16      29.77F
PRESTON        CLOUDY    42  38  84 SE12      29.81F
$$
ABBREVIATIONS USED IN REMARKS
   TC - TEMPERATURES IN CELSIUS
  WCI - WIND CHILL INDEX
   HX - HEAT INDEX
  VSB - VISIBILITY
$$


USA.gov is the U.S. government's official web portal to all federal, state and local government web resources and services.